[[{"header":{"parameterUnit":"m.s-1","parameterCategory":1,"la1":30.2992,"la2":30.254,"lo1":-89.0895,"lo2":-89.0443,"dy":0.0025,"dx":0.0025,"nx":19,"ny":19,"refTime":"2026-03-10T09:00:00:Z","depth":0,"parameterNumber":2,"parameterNumberName":"U-component_of_WINDS"},"data":[0,0,0,-2.2936,-2.2936,-2.2938,-2.2938,-2.2952,-2.2952,0,0,0,0,0,0,0,0,0,0,0,-2.2942,-2.2942,-2.2936,-2.2936,-2.2938,-2.2938,-2.2952,-2.2952,0,0,0,0,0,0,0,0,0,0,0,-2.2942,-2.2942,-2.2943,-2.2936,-2.2938,-2.2938,-2.2952,-2.2946,0,0,0,0,0,0,0,0,0,0,-2.2943,-2.2954,-2.2942,-2.2943,-2.2936,-2.2938,-2.2938,-2.2946,-2.2947,-2.2956,0,-2.2965,0,-2.2959,-2.2954,-2.2954,0,0,0,-2.2931,-2.2954,-2.2948,-2.2943,-2.2936,-2.2938,-2.2936,-2.2946,-2.2947,-2.2957,-2.2965,-2.2966,-2.2959,-2.2954,-2.2954,-2.3022,-2.3022,0,0,-2.2931,-2.2946,-2.2948,-2.2949,-2.2949,-2.2936,-2.2936,-2.2947,-2.2957,-2.2965,-2.2966,-2.2959,-2.2954,-2.2954,-2.3021,-2.3022,0,0,0,-2.2934,-2.2946,-2.294,-2.2949,-2.2948,-2.2936,-2.2936,-2.2956,-2.2953,-2.2966,-2.296,-2.2954,-2.2954,-2.3021,-2.3022,-2.3061,0,0,0,-2.2934,-2.2948,-2.294,-2.2949,-2.2948,-2.2952,-2.2946,-2.2952,-2.2953,-2.296,-2.2954,-2.2955,-2.302,-2.3021,-2.3059,-2.3077,0,0,0,-2.294,-2.2948,-2.2951,-2.295,-2.2951,-2.2952,-2.2949,-2.2952,-2.295,-2.2954,-2.2955,-2.302,-2.3021,-2.3057,-2.3074,-2.3099,0,0,0,-2.295,-2.2986,-2.2952,-2.299,-2.2951,-2.2977,-2.2949,-2.2967,-2.2975,-2.2954,-2.302,-2.3022,-2.3056,-2.3071,-2.3097,-2.3121,-2.3133,0,0,-2.3004,-2.2993,-2.3015,-2.2984,-2.3019,-2.2975,-2.3016,-2.3011,-2.2998,-2.3015,-2.3016,-2.306,-2.3073,-2.3098,-2.3198,-2.3208,0,0,0,-2.3036,-2.3052,-2.3058,-2.3067,-2.3063,-2.3062,-2.3049,-2.3047,-2.306,-2.301,-2.3076,-2.3084,-2.3098,-2.3109,-2.3117,-2.3128,-2.3028,-2.3028,-2.3027,-2.3132,-2.3114,-2.3149,-2.3132,-2.3141,-2.3127,-2.3133,-2.3128,-2.3108,-2.3124,-2.3128,-2.3191,-2.3204,-2.321,-2.3222,-2.3141,-2.3141,-2.3141,-2.3141,-2.3208,-2.3227,-2.32,-2.3223,-2.3205,-2.3225,-2.3214,-2.3199,-2.3215,-2.3186,-2.3197,-2.3165,-2.3221,-2.323,-2.3144,-2.3144,-2.3143,-2.3143,-2.3143,-2.3267,-2.3273,-2.3271,-2.3282,-2.3293,-2.3275,-2.3292,-2.3275,-2.3259,-2.3271,-2.3273,-2.3272,-2.3268,-2.3273,-2.3274,-2.3274,-2.3274,-2.3274,-2.3274,-2.3329,-2.3325,-2.3341,-2.3341,-2.3345,-2.3348,-2.3336,-2.3339,-2.3339,-2.3325,-2.3325,-2.3303,-2.3231,-2.3212,-2.3278,-2.3277,-2.3277,-2.3276,-2.3276,-2.341,-2.3389,-2.3414,-2.3418,-2.3417,-2.3429,-2.3408,-2.3417,-2.3418,-2.3427,-2.3403,-2.3353,-2.334,-2.3334,-2.3318,-2.3407,-2.3407,-2.3407,-2.3407,-2.3459,-2.3452,-2.3473,-2.348,-2.3486,-2.347,-2.3498,-2.349,-2.3479,-2.3478,-2.3463,-2.3442,-2.3436,-2.3427,-2.3419,-2.3404,-2.3512,-2.3512,-2.3513,-2.3507,-2.35,-2.3527,-2.3515,-2.3514,-2.3514,-2.3541,-2.3551,-2.3534,-2.3516,-2.3477,-2.3473,-2.3438,-2.3428,-2.3407,-2.3394,-2.3366,0,0]},{"header":{"parameterUnit":"m.s-1","parameterCategory":1,"la1":30.2992,"la2":30.254,"lo1":-89.0895,"lo2":-89.0443,"dy":0.0025,"dx":0.0025,"nx":19,"ny":19,"refTime":"2026-03-10T09:00:00:Z","depth":0,"parameterNumber":3,"parameterNumberName":"V-component_of_WINDS"},"data":[0,0,0,2.2351,2.2351,2.2371,2.2371,2.2384,2.2384,0,0,0,0,0,0,0,0,0,0,0,2.2335,2.2335,2.2351,2.2351,2.2371,2.2371,2.2384,2.2384,0,0,0,0,0,0,0,0,0,0,0,2.2335,2.2335,2.2334,2.2351,2.2371,2.2371,2.2384,2.2374,0,0,0,0,0,0,0,0,0,0,2.2357,2.2332,2.2335,2.2334,2.2351,2.2371,2.2371,2.2374,2.2375,2.2369,0,2.236,0,2.2372,2.2384,2.2384,0,0,0,2.2358,2.2331,2.2346,2.2334,2.2351,2.2371,2.2364,2.2374,2.2375,2.237,2.236,2.2361,2.2372,2.2384,2.2384,2.2326,2.2325,0,0,2.2357,2.2333,2.2345,2.2346,2.234,2.2363,2.2365,2.2375,2.2363,2.236,2.2362,2.2373,2.2384,2.2384,2.2327,2.2326,0,0,0,2.2349,2.2332,2.2347,2.2345,2.2349,2.2364,2.2365,2.2363,2.237,2.2362,2.2373,2.2384,2.2384,2.2327,2.2326,2.2274,0,0,0,2.2349,2.2328,2.2346,2.2331,2.2349,2.2356,2.2352,2.2369,2.2371,2.2373,2.2384,2.2384,2.2328,2.2327,2.2277,2.2253,0,0,0,2.2337,2.2326,2.2326,2.233,2.2338,2.2356,2.2364,2.237,2.2377,2.2384,2.2384,2.2328,2.2327,2.2279,2.2258,2.2233,0,0,0,2.2318,2.2277,2.2324,2.2284,2.2338,2.2323,2.2364,2.2354,2.2354,2.2384,2.2328,2.2326,2.228,2.226,2.2236,2.2209,2.2195,0,0,2.2253,2.2268,2.2247,2.229,2.2261,2.2322,2.2286,2.2308,2.233,2.2327,2.2326,2.2276,2.2258,2.2234,2.2123,2.2112,0,0,0,2.2219,2.2203,2.2201,2.2199,2.2216,2.2229,2.2259,2.2268,2.2266,2.2323,2.226,2.225,2.2237,2.2226,2.2216,2.2207,2.232,2.232,2.232,2.2093,2.2126,2.2093,2.2128,2.2127,2.216,2.2163,2.2181,2.2212,2.2197,2.2196,2.2125,2.2111,2.2104,2.2094,2.2183,2.2183,2.2183,2.2183,2.2004,2.1988,2.2033,2.2018,2.2053,2.2041,2.2072,2.2096,2.2091,2.2127,2.2117,2.2156,2.209,2.2084,2.2179,2.218,2.218,2.2181,2.2181,2.1927,2.1925,2.1937,2.1942,2.1942,2.1979,2.1974,2.2005,2.2035,2.2025,2.2029,2.203,2.2037,2.2025,2.2024,2.2024,2.2024,2.2024,2.2024,2.1843,2.1858,2.1849,2.1866,2.1871,2.1882,2.1918,2.1924,2.194,2.1964,2.1964,2.1999,2.2077,2.2098,2.202,2.2021,2.2021,2.2021,2.2022,2.1743,2.1771,2.1757,2.1763,2.1787,2.1787,2.1828,2.1839,2.1849,2.1846,2.1884,2.1936,2.1954,2.1962,2.1979,2.1875,2.1875,2.1875,2.1875,2.1679,2.1691,2.1686,2.1694,2.1705,2.1741,2.1728,2.1756,2.179,2.1799,2.1818,2.1843,2.185,2.1864,2.1874,2.189,2.1766,2.1766,2.1766,2.1621,2.1636,2.1617,2.1651,2.1673,2.1692,2.1681,2.1689,2.1733,2.1763,2.1807,2.1812,2.1852,2.1863,2.1893,2.1908,2.1939,0,0]}]]